Simultaneous Nadir Overpasses (SNOs) Predictions

Prediction of SNOs between NOAA-20 and TERRA Satellite Orbit:

Table of predicted SNOs for the next 14.0 days since TLE Epoch: 7/14/2024
Index Date (NOAA-20) Time (NOAA-20) Lat,Lon (NOAA-20) SZA (NOAA-20 ) Date (TERRA) Time (TERRA) Lat,Lon (TERRA) SZA (TERRA ) Distance(km) Time Diff (sec)
1 07/15/2024 04:44:56 72.85, 100.30 51.62 07/15/2024 04:46:06 72.74, 101.71 51.41 48.05 70
2 07/15/2024 05:35:30 -72.37, -91.41 128.91 07/15/2024 05:35:35 -72.37, -91.32 128.92 3.22 5
3 07/15/2024 06:26:11 72.09, 76.45 50.80 07/15/2024 06:24:59 72.14, 75.96 50.89 17.71 72
4 07/17/2024 16:47:57 -72.40, 100.42 128.46 07/17/2024 16:48:42 -72.41, 100.45 128.46 1.94 45
5 07/17/2024 17:38:42 72.33, -92.13 51.47 07/17/2024 17:38:04 72.30, -92.09 51.45 3.03 38
6 07/
